Location: Helsinki
(60.1699°N, 24.9384°E)
Time: 23:38:27
(UTC+02:00)

A-11 Canister half - Pass Details

Date: 28 October 2020
Orbit: 1516 x 1684 km, 47.2° (Epoch: 26 November)

Event Time Altitude Azimuth Distance (km) Brightness Sun altitude
Rises 22:40:33 0° 243° (WSW) 4,921 11.7 -40.9°
Enters shadow 22:43:27 - 238° (WSW) 4,074 11.1 -41.0°
Reaches altitude 10° 22:44:00 10° 236° (SW) 3,920 - -41.1°
Maximum altitude 22:52:54 38° 174° (S) 2,311 - -41.5°
Drops below altitude 10° 23:01:33 10° 111° (ESE) 3,812 - -41.9°
Sets 23:04:52 0° 103° (ESE) 4,773 - -42.1°
